Tracking 26955 objects as of 3-Feb-2023
HD Live streaming from Space Station
objects crossing your sky now

DELTA 1 DEB

Track DELTA 1 DEB now!
10-day predictions


NORAD ID: 26841
Int'l Code: 1975-052KV
Perigee: 933.1 km
Apogee: 1,716.4 km
Inclination: 99.9 °
Period: 112.0 minutes
Semi major axis: 7695 km
RCS: 0.0089 m2 (small)
Launch date: June 12, 1975
Source: United States (US)
Launch site: AIR FORCE WESTERN TEST RANGE (AFWTR)

Note: This is SATELLITE DEBRIS
Your satellite tracking list
Your tracking list is empty




NASA's NSSDC Master Catalog

Two Line Element Set (TLE):
1 26841U 75052KV  23033.72060424  .00000335  00000-0  85821-3 0  9994
2 26841  99.9142 120.4447 0508901  23.9607 123.1304 12.85949884439715
Source of the keplerian elements: AFSPC